Simultaneous Nadir Overpasses (SNOs) Predictions

Prediction of SNOs between GOES-15 and LANDSAT-8 Satellite Orbit:

Table of predicted SNOs for the next 14.0 days since TLE Epoch: 6/22/2024
Index Date Time (GOES-15) GOES-15 Lat,Lon LANDSAT-8 Lat,Lon Distance(km) Time Diff (sec)
1 06/22/2024 06:01:52 -0.12, 61.24 -0.28, 62.04 90.38 80
2 06/24/2024 05:49:42 -0.13, 61.23 -0.91, 64.99 427.15 80
3 06/24/2024 18:13:46 0.10, 61.27 -0.22, 59.81 167.00 80
4 06/26/2024 17:58:56 0.11, 61.27 0.43, 62.76 169.64 80
5 06/27/2024 06:22:51 -0.08, 61.22 0.72, 57.61 410.62 80
6 06/29/2024 06:10:41 -0.08, 61.21 0.05, 60.56 73.93 80
7 07/01/2024 05:55:50 -0.09, 61.21 -0.58, 63.52 262.36 80
8 07/01/2024 18:19:53 0.05, 61.26 -0.60, 58.35 332.20 80
9 07/03/2024 18:07:42 0.06, 61.27 0.05, 61.30 3.93 80
10 07/05/2024 17:52:51 0.07, 61.28 0.72, 64.26 338.88 80
